Weather History for KBAD - March, 2013

Change the Weather History Date:

Sunday, March 24, 2013

  Actual Average (KSHV) Record (KSHV)
Temperature  
Mean Temperature 45 °F 60 °F  
Max Temperature 52 °F 72 °F 90 °F (1929)
Min Temperature 36 °F 48 °F 32 °F (2006)
Degree Days  
Heating Degree Days 20 6  
Month to date heating degree days 211  
Since 1 July heating degree days 2093  
Cooling Degree Days 0 1  
Month to date cooling degree days 22  
Year to date cooling degree days 32  
Moisture  
Dew Point 43 °F    
Average Humidity 82    
Maximum Humidity 100    
Minimum Humidity 41    
Precipitation  
Precipitation 0.01 in 0.14 in 2.37 in (1883)
Month to date precipitation 3.18  
Year to date precipitation 12.13  
Snow  
Snow 0.00 in - - ()
Month to date snowfall  
Since 1 July snowfall  
Snow Depth -    
Sea Level Pressure  
Sea Level Pressure 29.84 in    
Wind  
Wind Speed 12 mph (NW)    
Max Wind Speed 30 mph    
Max Gust Speed 39 mph    
Visibility 8 miles    
Events      
T = Trace of Precipitation, MM = Missing Value Source: NWS Daily Summary

Daily Weather History Graph

Daily Weather History Graph

Search for Another Location

Airport or City:

Trip Planner

Search our weather history database for the weather conditions in past years. The results will help you decide how hot, cold, wet, or windy it might be!

Date:

Astronomy

Mar. 24, 2013 Rise Set
Actual Time 7:12 AM CDT 7:29 PM CDT
Civil Twilight 6:48 AM CDT 7:53 PM CDT
Nautical Twilight 6:19 AM CDT 8:22 PM CDT
Astronomical Twilight 5:50 AM CDT 8:51 PM CDT
Moon 5:04 PM CDT (3/24) 5:15 AM CDT (3/24)
Length of Visible Light 13h 05m
Length of Day
12h 16m
Waxing Gibbous, 92% of the Moon is Illuminated
Mar 24
Waxing Gibbous
Mar 27
Full
Apr 2
Last Quarter
Apr 10
New
Apr 18
First Quarter

Hourly Weather History & Observations

Time (CDT) Temp. Windchill Dew Point Humidity Pressure Visibility Wind Dir Wind Speed Gust Speed Precip Events Conditions
12:08 AM 51.8 °F - 51.8 °F 100% 29.68 in 10.0 mi North 5.8 mph - N/A   Overcast
12:18 AM 51.8 °F - 51.8 °F 100% 29.67 in 9.0 mi ENE 4.6 mph - N/A   Overcast
12:28 AM 51.8 °F - 51.8 °F 100% 29.67 in 3.0 mi NNE 4.6 mph - N/A   Overcast
12:38 AM 51.8 °F - 51.8 °F 100% 29.67 in 1.2 mi NE 3.5 mph - N/A   Overcast
12:48 AM 51.8 °F - 51.8 °F 100% 29.66 in 1.2 mi ENE 4.6 mph - N/A   Overcast
12:58 AM 51.8 °F - 51.8 °F 100% 29.67 in 2.0 mi ENE 4.6 mph - N/A   Overcast
1:08 AM 51.8 °F - 51.8 °F 100% 29.65 in 1.0 mi East 4.6 mph - N/A   Mist
1:28 AM 51.8 °F - 51.8 °F 100% 29.65 in 1.2 mi ESE 5.8 mph - N/A   Overcast
1:38 AM 51.8 °F - 51.8 °F 100% 29.65 in 1.2 mi SE 5.8 mph - N/A   Overcast
1:48 AM 51.8 °F - 51.8 °F 100% 29.68 in 3.0 mi NNW 6.9 mph - N/A   Overcast
1:58 AM 51.8 °F - 51.8 °F 100% 29.78 in 2.0 mi NW 20.7 mph - N/A   Overcast
2:08 AM 51.8 °F - 51.8 °F 100% 29.77 in 1.2 mi NW 18.4 mph 29.9 mph N/A   Light Drizzle
2:18 AM 51.8 °F - 51.8 °F 100% 29.77 in 4.0 mi NW 16.1 mph - N/A   Light Drizzle
2:38 AM 51.8 °F - 51.8 °F 100% 29.74 in 9.0 mi NNW 6.9 mph - N/A   Overcast
2:48 AM 51.8 °F - 51.8 °F 100% 29.75 in 10.0 mi NW 17.3 mph - N/A   Overcast
2:58 AM 50.9 °F - 50.7 °F 99% 29.75 in 10.0 mi NNW 13.8 mph - 0.00 in   Overcast
3:18 AM 50.0 °F - 50.0 °F 100% 29.74 in 9.0 mi NNW 12.7 mph - N/A   Overcast
3:28 AM 50.0 °F - 50.0 °F 100% 29.74 in 10.0 mi NW 8.1 mph - N/A   Overcast
3:58 AM 50.4 °F - 50.4 °F 100% 29.76 in 10.0 mi NW 16.1 mph - N/A   Overcast
4:18 AM 50.0 °F - 50.0 °F 100% 29.76 in 10.0 mi NW 23.0 mph 28.8 mph N/A   Overcast
4:28 AM 50.0 °F - 50.0 °F 100% 29.78 in 10.0 mi WNW 23.0 mph 28.8 mph N/A   Light Drizzle
4:38 AM 50.0 °F - 50.0 °F 100% 29.78 in 10.0 mi NW 15.0 mph 23.0 mph N/A   Light Drizzle
4:58 AM 50.2 °F - 50.0 °F 99% 29.78 in 10.0 mi NW 6.9 mph - 0.01 in   Light Drizzle
5:48 AM 50.0 °F - 50.0 °F 100% 29.78 in 10.0 mi WNW 9.2 mph - N/A   Overcast
5:58 AM 50.5 °F - 50.2 °F 99% 29.80 in 10.0 mi WNW 13.8 mph - 0.00 in   Overcast
6:08 AM 50.0 °F - 50.0 °F 100% 29.80 in 10.0 mi WNW 18.4 mph 25.3 mph N/A   Overcast
6:18 AM 50.0 °F - 48.2 °F 94% 29.80 in 10.0 mi WNW 18.4 mph 25.3 mph N/A   Overcast
6:28 AM 50.0 °F - 44.6 °F 82% 29.80 in 10.0 mi NW 17.3 mph 31.1 mph N/A   Overcast
6:58 AM 48.6 °F - 44.1 °F 84% 29.83 in 10.0 mi NW 21.9 mph 33.4 mph N/A   Overcast
7:38 AM 46.4 °F 39.5 °F 41.0 °F 81% 29.84 in 10.0 mi NW 17.3 mph - N/A   Mostly Cloudy
7:58 AM 46.9 °F - 40.6 °F 79% 29.86 in 10.0 mi WNW 19.6 mph - N/A   Overcast
8:58 AM 45.3 °F 36.3 °F 34.7 °F 66% 29.90 in 10.0 mi NW 26.5 mph 31.1 mph N/A   Mostly Cloudy
9:48 AM 44.6 °F 35.5 °F 32.0 °F 61% 29.93 in 10.0 mi NW 25.3 mph 28.8 mph N/A   Overcast
9:58 AM 43.7 °F 33.9 °F 32.0 °F 63% 29.95 in 10.0 mi NW 27.6 mph 38.0 mph N/A   Overcast
10:08 AM 44.6 °F 34.7 °F 32.0 °F 61% 29.95 in 10.0 mi WNW 29.9 mph 35.7 mph N/A   Overcast
10:58 AM 45.7 °F 36.6 °F 31.8 °F 58% 29.97 in 10.0 mi NW 27.6 mph 33.4 mph N/A   Overcast
11:58 AM 48.9 °F - 31.3 °F 51% 29.99 in 10.0 mi WNW 23.0 mph 33.4 mph N/A   Mostly Cloudy
12:58 PM 50.4 °F - 29.1 °F 44% 29.99 in 10.0 mi NW 20.7 mph 36.8 mph N/A   Scattered Clouds
1:58 PM 51.4 °F - 29.3 °F 43% 29.99 in 10.0 mi NW 25.3 mph 39.1 mph N/A   Scattered Clouds
2:58 PM 50.7 °F - 29.5 °F 44% 29.99 in 10.0 mi WNW 21.9 mph 32.2 mph N/A   Scattered Clouds
3:58 PM 52.0 °F - 28.6 °F 41% 29.99 in 10.0 mi NW 18.4 mph 33.4 mph N/A   Partly Cloudy
4:58 PM 50.0 °F - 28.8 °F 44% 30.01 in 10.0 mi NW 20.7 mph 25.3 mph N/A   Scattered Clouds
5:58 PM 49.6 °F - 27.3 °F 42% 30.01 in 10.0 mi NW 19.6 mph 28.8 mph N/A   Clear
6:58 PM 48.0 °F - 27.9 °F 46% 30.03 in 10.0 mi NNW 23.0 mph 27.6 mph N/A   Clear
7:58 PM 44.8 °F 39.9 °F 28.0 °F 52% 30.05 in 10.0 mi NNW 9.2 mph - N/A   Clear
8:58 PM 41.7 °F 36.7 °F 28.2 °F 59% 30.07 in 10.0 mi North 8.1 mph - N/A   Clear
9:58 PM 39.6 °F 34.0 °F 29.5 °F 67% 30.09 in 10.0 mi NNW 8.1 mph - N/A   Clear
10:58 PM 38.7 °F 32.9 °F 28.6 °F 67% 30.12 in 10.0 mi NNW 8.1 mph - N/A   Clear
11:58 PM 36.5 °F 31.0 °F 28.4 °F 72% 30.14 in 10.0 mi NNW 6.9 mph - N/A   Clear